Jackson, MN

9:59 AM CDT on April 25, 2017 (GMT -0500)
Jackson Municipal

Weather History for KMJQ - December, 2013

Change the Weather History Date:

Saturday, December 21, 2013

  Actual Average Record
Temperature  
Mean Temperature 14 °F -  
Max Temperature 19 °F 23 °F 37 °F (2001)
Min Temperature 8 °F 9 °F -11 °F (1999)
Degree Days  
Heating Degree Days 52    
Moisture  
Dew Point 11 °F    
Average Humidity 85    
Maximum Humidity 93    
Minimum Humidity 79    
Precipitation  
Precipitation 0.00 in - - ()
Sea Level Pressure  
Sea Level Pressure 29.86 in    
Wind  
Wind Speed 6 mph (NNE)    
Max Wind Speed 17 mph    
Max Gust Speed 22 mph    
Visibility 8 miles    
Events Snow    
Averages and records for this station are not official NWS values.
T = Trace of Precipitation, MM = Missing Value Source: NWS Daily Summary

Daily Weather History Graph

Daily Weather History Graph

Search for Another Location

Airport or City:

Trip Planner

Search our weather history database for the weather conditions in past years. The results will help you decide how hot, cold, wet, or windy it might be!

Date:

Astronomy

Dec. 21, 2013 Rise Set
Actual Time 7:50 AM CST 4:46 PM CST
Civil Twilight 7:17 AM CST 5:19 PM CST
Nautical Twilight 6:41 AM CST 5:55 PM CST
Astronomical Twilight 6:06 AM CST 6:30 PM CST
Moon 9:10 PM CST (12/21) 10:10 AM CST (12/21)
Length of Visible Light 10h 01m
Length of Day
8h 55m
Waning Gibbous, 84% of the Moon is Illuminated
Dec 21
Waning Gibbous
Dec 25
Last Quarter
Jan 1
New
Jan 7
First Quarter
Jan 15
Full

Hourly Weather History & Observations

Time (CST) Temp. Windchill Dew Point Humidity Pressure Visibility Wind Dir Wind Speed Gust Speed Precip Events Conditions
12:13 AM 8.6 °F 0.1 °F 5.0 °F 85% 29.85 in 10.0 mi West 4.6 mph - N/A   Clear
12:33 AM 8.6 °F -1.3 °F 5.0 °F 85% 29.83 in 7.0 mi WNW 5.8 mph - N/A   Scattered Clouds
12:53 AM 8.6 °F 2.0 °F 5.0 °F 85% 29.83 in 10.0 mi West 3.5 mph - N/A   Scattered Clouds
1:13 AM 8.6 °F 2.0 °F 3.2 °F 79% 29.82 in 10.0 mi West 3.5 mph - N/A Snow Light Snow
1:33 AM 8.6 °F -1.3 °F 5.0 °F 85% 29.83 in 10.0 mi West 5.8 mph - N/A Snow Light Snow
1:53 AM 8.6 °F -1.3 °F 5.0 °F 85% 29.83 in 7.0 mi WNW 5.8 mph - N/A Snow Light Snow
2:13 AM 8.6 °F - 3.2 °F 79% 29.82 in 10.0 mi Calm Calm - N/A   Scattered Clouds
2:33 AM 8.6 °F - 3.2 °F 79% 29.83 in 10.0 mi Calm Calm - N/A   Mostly Cloudy
2:53 AM 10.4 °F - 5.0 °F 79% 29.84 in 10.0 mi Calm Calm - N/A   Overcast
3:13 AM 10.4 °F - 5.0 °F 79% 29.84 in 10.0 mi Calm Calm - N/A   Overcast
3:33 AM 10.4 °F 4.0 °F 5.0 °F 79% 29.82 in 10.0 mi North 3.5 mph - N/A   Overcast
3:53 AM 10.4 °F 4.0 °F 6.8 °F 85% 29.81 in 10.0 mi NNE 3.5 mph - N/A   Overcast
4:13 AM 10.4 °F 4.0 °F 6.8 °F 85% 29.80 in 10.0 mi NNE 3.5 mph - N/A   Overcast
4:33 AM 10.4 °F 4.0 °F 8.6 °F 92% 29.81 in 10.0 mi NE 3.5 mph - N/A   Overcast
4:53 AM 12.2 °F - 8.6 °F 85% 29.80 in 10.0 mi Calm Calm - N/A   Overcast
5:13 AM 12.2 °F 2.9 °F 8.6 °F 85% 29.79 in 10.0 mi NNE 5.8 mph - N/A   Overcast
5:33 AM 12.2 °F 6.1 °F 8.6 °F 85% 29.80 in 10.0 mi NE 3.5 mph - N/A   Overcast
5:53 AM 12.2 °F 6.1 °F 8.6 °F 85% 29.82 in 10.0 mi ENE 3.5 mph - N/A   Overcast
6:13 AM 12.2 °F - 8.6 °F 85% 29.81 in 10.0 mi Calm Calm - N/A   Overcast
6:33 AM 12.2 °F 4.3 °F 8.6 °F 85% 29.82 in 10.0 mi NE 4.6 mph - N/A   Overcast
6:53 AM 12.2 °F 4.3 °F 8.6 °F 85% 29.82 in 10.0 mi NE 4.6 mph - N/A   Overcast
7:13 AM 12.2 °F 6.1 °F 8.6 °F 85% 29.83 in 10.0 mi NE 3.5 mph - N/A   Overcast
7:33 AM 12.2 °F 2.9 °F 8.6 °F 85% 29.84 in 10.0 mi NNE 5.8 mph - N/A   Overcast
7:53 AM 12.2 °F 2.9 °F 8.6 °F 85% 29.85 in 10.0 mi NNE 5.8 mph - N/A   Overcast
8:13 AM 12.2 °F 2.9 °F 10.4 °F 92% 29.86 in 10.0 mi North 5.8 mph - N/A   Overcast
8:33 AM 14.0 °F 5.1 °F 10.4 °F 86% 29.85 in 10.0 mi NE 5.8 mph - N/A   Overcast
8:53 AM 14.0 °F 3.9 °F 10.4 °F 86% 29.86 in 7.0 mi NE 6.9 mph - N/A   Overcast
9:13 AM 14.0 °F 6.5 °F 10.4 °F 86% 29.88 in 5.0 mi ENE 4.6 mph - N/A   Overcast
9:33 AM 14.0 °F 3.9 °F 12.2 °F 93% 29.86 in 5.0 mi ENE 6.9 mph - N/A   Overcast
9:53 AM 15.8 °F 8.6 °F 12.2 °F 86% 29.86 in 3.0 mi East 4.6 mph - N/A Snow Light Snow
10:13 AM 17.6 °F 10.7 °F 14.0 °F 86% 29.89 in 4.0 mi East 4.6 mph - N/A   Overcast
10:33 AM 17.6 °F 9.3 °F 14.0 °F 86% 29.88 in 5.0 mi East 5.8 mph - N/A   Overcast
10:53 AM 17.6 °F 9.3 °F 14.0 °F 86% 29.88 in 5.0 mi NE 5.8 mph - N/A   Overcast
11:13 AM 17.6 °F 8.2 °F 14.0 °F 86% 29.85 in 5.0 mi NNE 6.9 mph - N/A   Overcast
11:33 AM 19.4 °F 11.5 °F 15.8 °F 86% 29.85 in 7.0 mi NE 5.8 mph - N/A   Overcast
11:52 AM 19.4 °F 10.4 °F 15.8 °F 86% 29.88 in 3.0 mi NE 6.9 mph - N/A   Overcast
12:13 PM 19.4 °F 12.8 °F 15.8 °F 86% 29.88 in 3.0 mi NNE 4.6 mph - N/A   Overcast
12:33 PM 19.4 °F 11.5 °F 15.8 °F 86% 29.87 in 4.0 mi NNE 5.8 mph - N/A   Overcast
12:53 PM 19.4 °F 12.8 °F 15.8 °F 86% 29.87 in 7.0 mi North 4.6 mph - N/A   Overcast
1:13 PM 19.4 °F 10.4 °F 15.8 °F 86% 29.87 in 10.0 mi NNE 6.9 mph - N/A   Overcast
1:33 PM 19.4 °F 9.5 °F 15.8 °F 86% 29.87 in 10.0 mi North 8.1 mph - N/A   Overcast
1:53 PM 19.4 °F 8.6 °F 15.8 °F 86% 29.87 in 10.0 mi North 9.2 mph - N/A   Overcast
2:12 PM 19.4 °F 6.6 °F 17.6 °F 93% 29.83 in 10.0 mi North 12.7 mph - N/A   Overcast
2:33 PM 19.4 °F 7.9 °F 15.8 °F 86% 29.84 in 10.0 mi North 10.4 mph - N/A   Overcast
2:53 PM 19.4 °F 7.9 °F 15.8 °F 86% 29.87 in 7.0 mi North 10.4 mph - N/A   Overcast
3:12 PM 19.4 °F 7.9 °F 15.8 °F 86% 29.87 in 7.0 mi North 10.4 mph - N/A   Overcast
3:33 PM 19.4 °F 5.5 °F 15.8 °F 86% 29.86 in 10.0 mi North 15.0 mph - N/A   Overcast
3:53 PM 19.4 °F 6.6 °F 15.8 °F 86% 29.88 in 10.0 mi North 12.7 mph - N/A   Overcast
4:12 PM 19.4 °F 5.5 °F 15.8 °F 86% 29.89 in 10.0 mi NNE 15.0 mph - N/A   Overcast
4:33 PM 19.4 °F 5.0 °F 14.0 °F 80% 29.88 in 10.0 mi NNE 16.1 mph - N/A   Overcast
4:53 PM 19.4 °F 5.0 °F 14.0 °F 80% 29.88 in 10.0 mi North 16.1 mph - N/A   Overcast
5:12 PM 19.4 °F 5.5 °F 14.0 °F 80% 29.88 in 10.0 mi North 15.0 mph - N/A   Overcast
5:33 PM 19.4 °F 7.2 °F 14.0 °F 80% 29.90 in 10.0 mi North 11.5 mph - N/A   Overcast
5:53 PM 19.4 °F 7.9 °F 14.0 °F 80% 29.91 in 10.0 mi North 10.4 mph - N/A   Overcast
6:12 PM 17.6 °F 5.0 °F 14.0 °F 86% 29.91 in 10.0 mi North 11.5 mph - N/A   Overcast
6:33 PM 17.6 °F 3.7 °F 14.0 °F 86% 29.90 in 10.0 mi North 13.8 mph 17.3 mph N/A   Overcast
6:53 PM 17.6 °F 3.7 °F 14.0 °F 86% 29.89 in 10.0 mi North 13.8 mph 19.6 mph N/A   Overcast
7:13 PM 17.6 °F 3.2 °F 14.0 °F 86% 29.90 in 10.0 mi North 15.0 mph - N/A   Overcast
7:33 PM 17.6 °F 3.2 °F 14.0 °F 86% 29.90 in 10.0 mi North 15.0 mph - N/A   Overcast
7:53 PM 17.6 °F 2.7 °F 14.0 °F 86% 29.89 in 10.0 mi North 16.1 mph 19.6 mph N/A   Overcast
8:13 PM 17.6 °F 2.2 °F 14.0 °F 86% 29.88 in 7.0 mi North 17.3 mph - N/A   Overcast
8:33 PM 17.6 °F 3.2 °F 14.0 °F 86% 29.88 in 7.0 mi North 15.0 mph 21.9 mph N/A   Overcast
8:53 PM 17.6 °F 4.3 °F 14.0 °F 86% 29.88 in 7.0 mi North 12.7 mph - N/A   Overcast
9:12 PM 15.8 °F 0.9 °F 12.2 °F 86% 29.89 in 7.0 mi North 15.0 mph - N/A   Overcast
9:33 PM 15.8 °F 1.4 °F 12.2 °F 86% 29.89 in 7.0 mi North 13.8 mph 18.4 mph N/A   Overcast
9:53 PM 15.8 °F 2.7 °F 12.2 °F 86% 29.90 in 5.0 mi North 11.5 mph 19.6 mph N/A   Overcast
10:13 PM 14.0 °F 0.5 °F 10.4 °F 86% 29.90 in 5.0 mi North 11.5 mph 19.6 mph N/A   Overcast
10:33 PM 14.0 °F -0.2 °F 10.4 °F 86% 29.90 in 5.0 mi North 12.7 mph 20.7 mph N/A   Overcast
10:53 PM 12.2 °F -1.8 °F 10.4 °F 92% 29.89 in 7.0 mi North 11.5 mph 18.4 mph N/A Snow Light Snow
11:13 PM 12.2 °F -2.5 °F 10.4 °F 92% 29.89 in 7.0 mi North 12.7 mph 18.4 mph N/A   Overcast
11:33 PM 12.2 °F -1.0 °F 8.6 °F 85% 29.89 in 7.0 mi North 10.4 mph 17.3 mph N/A   Overcast
11:53 PM 12.2 °F -1.0 °F 8.6 °F 85% 29.89 in 10.0 mi NNW 10.4 mph - N/A   Overcast